SCP
0 0 0 0 0 0 0 0 0 0 0 0 0 0 0 0 0 0 0 0 0 0 0 0 0 0 0 0 0 0 0 0 0 0 0 0 0 0 0 0 0 0 0 0
0 0 0 0 0 0 0 0 0 0 0 0 0 0 0 0 0 0 0 0 0 0 0 0 0 0 0 0 0 0 0 0 0 0 0 0 0 0 0 0 0 0 0 0
0 0 0 0 0 0 0 0 0 0 0 0 0 0 0 0 0 0 0 0 0 0 0 0 0 0 0 0 0 0 0 0 0 0 0 0 0 0 0 -0 -0 0 0 0
0 0 0 0 0 0 0 0 0 0 0 0 0 0 0 0 0 0 0 0 0 0 0 0 0 0 0 0 0 0 0 0 0 0 0 0 0 0 0 0 0 0 0 -0
0 0 0 0 0 0 0 0 0 0 0 0 0 0 0 0 0 0 0 0 0 0 0 0 0 0 0 0 0 0 0 0 0 0 0 0 0 0 0 0 -0 -0 -0 0
0 0 0 0 0 0 0 0 0 0 0 0 0 0 0 0 0 0 0 0 0 0 0 0 0 0 0 0 0 0 0 0 0 0 0 0 0 0 0 0 0 0 -0 -0
0 0 0 0 0 0 0 0 0 0 0 0 0 0 0 0 0 0 0 0 0 0 0 0 0 0 0 0 0 0 0 0 0 0 0 0 0 0 0 0 0 0 0 0
0 0 0 0 0 0 0 0 0 0 0 0 0 0 0 0 0 0 0 0 0 0 0 0 0 0 0 0 0 0 0 0 0 0 0 0 0 0 0 0 0 0 0 0
0 0 0 0 0 0 0 0 0 0 0 0 0 0 0 0 0 0 0 0 0 0 0 0 0 0 0 0 0 0 0 0 0 0 0 0 0 0 0 0 0 0 0 0
0 0 0 0 0 0 0 0 0 0 0 0 0 0 0 0 0 0 0 0 0 0 0 0 0 0 0 0 0 0 0 0 0 0 0 0 0 0 0 0 0 0 0 0
0 0 0 0 0 0 0 0 0 0 0 0 0 0 0 0 0 0 0 0 0 0 0 0 0 0 0 0 0 0 0 0 0 0 0 0 0 0 0 0 0 0 0 0
0 0 0 0 0 0 0 0 0 0 0 0 0 0 0 0 0 0 0 0 0 0 0 0 0 0 0 0 0 0 0 0 0 0 0 0 0 0 0 0 0 -0 0 0
0 0 0 0 0 0 0 0 0 0 0 0 0 0 0 0 0 0 0 0 0 0 0 0 0 0 0 0 0 0 0 0 0 0 0 0 0 0 0 0 0 0 0 0
0 0 0 0 0 0 0 0 0 0 0 0 0 0 0 0 0 0 0 0 0 0 0 0 0 0 0 0 0 0 0 0 0 0 0 0 0 0 0 -0 0 0 0 0
0 0 0 0 0 0 0 0 0 0 0 0 0 0 0 0 0 0 0 0 0 0 0 0 0 0 0 0 0 0 0 0 0 0 0 0 0 0 0 0 0 0 0 0
0 0 0 0 0 0 0 0 0 0 0 0 0 0 0 0 0 0 0 0 0 0 0 0 0 0 0 0 0 0 0 0 0 0 0 0 0 0 0 0 0 0 0 0
0 0 0 0 0 0 0 0 0 0 0 0 0 0 0 0 0 0 0 0 0 0 0 0 0 0 0 0 0 0 0 0 0 0 0 0 0 0 0 0 0 0 0 0
0 0 0 0 0 0 0 0 0 0 0 0 0 0 0 0 0 0 0 0 0 0 0 0 0 0 0 0 -0 -0 0 0 0 0 0 0 0 0 0 0 0 0 0 0
0 0 0 0 0 0 0 0 0 0 0 0 0 0 0 0 0 0 0 0 0 0 0 0 0 0 0 0 -0 -0 0 0 0 0 -0 -0 0 0 0 0 0 0 0 0
0 0 0 0 0 0 0 0 0 0 0 0 0 0 0 0 0 0 0 0 0 0 0 0 0 0 0 0 0 -0 0 0 0 -0 -0 -0 -0 0 0 0 0 0 0 0
0 0 0 0 0 0 0 0 0 0 0 0 0 0 0 0 0 0 0 0 0 0 0 0 -0 0 0 0 0 0 0 0 0 0 0 0 0 0 -0 0 0 0 0 0
0 0 0 0 0 0 0 0 0 0 0 0 0 0 0 0 0 0 0 0 0 0 0 -0 -0 -0 0 0 0 0 0 0 0 0 0 0 0 0 0 0 0 0 0 0
0 0 0 0 0 0 0 0 0 0 0 0 0 0 0 0 0 0 0 0 0 0 -0 -0 -0 -0 0 0 0 0 0 0 0 0 0 0 0 0 0 0 0 0 0 0
0 0 0 0 0 0 0 0 0 0 0 0 0 0 0 0 0 0 0 0 0 -0 -0 -0 -0 0 0 0 -0 -0 0 0 0 0 0 0 0 0 0 0 0 0 0 0
0 0 0 0 0 0 0 0 0 0 0 0 0 0 0 0 0 0 0 0 0 -0 -0 -0 -0 -0 0 0 0 -0 -0 0 0 0 0 0 0 0 0 0 0 0 0 0
0 0 0 0 0 0 0 0 0 0 0 0 0 0 0 0 0 0 0 0 0 -0 -0 0 -0 -0 0 0 0 0 0 0 0 0 0 0 0 0 0 0 0 0 0 0
0 0 0 0 0 0 0 0 0 0 0 0 0 0 0 0 0 0 0 0 0 -0 -0 0 -0 0 -0 -0 -0 0 0 0 0 0 0 0 0 0 0 0 0 0 0 0
Wind_Speed_500mb
10 13 9 11 18 17 11 13 11 10 11 2 5 5 15 21 28 27 23 29 32 37 44 54 64 64 62 65 68 67 61 63 58 52 51 51 51 47 42 39 42 35 37 36
7 13 12 14 19 16 13 6 10 13 6 6 2 13 15 24 23 26 27 29 31 43 55 64 63 62 62 67 69 60 57 58 55 53 54 56 48 44 46 42 42 39 36 35
9 9 13 14 11 5 6 3 9 5 7 5 6 26 18 27 24 22 21 27 41 52 63 64 60 59 65 68 65 56 57 54 55 55 54 52 49 47 40 42 36 36 31 30
7 7 3 14 4 7 14 7 8 12 8 8 9 16 15 19 27 30 27 38 47 59 60 58 60 57 64 68 61 51 54 52 52 56 57 50 45 47 42 40 36 36 34 35
4 4 12 12 4 7 9 3 2 11 4 9 10 9 8 20 30 30 32 41 52 58 58 67 55 63 69 62 51 46 50 54 59 56 54 53 52 48 42 38 37 37 37 33
6 5 10 13 3 14 12 5 9 9 2 3 8 8 8 20 25 24 37 49 60 61 69 53 62 63 59 50 48 47 53 52 55 56 61 62 53 47 39 36 35 33 37 37
6 8 14 14 16 9 9 13 18 7 4 5 2 1 7 17 22 33 46 56 61 69 52 59 56 51 51 51 46 46 50 52 59 59 71 59 49 43 34 33 31 32 31 22
5 6 14 29 10 14 13 24 17 16 13 4 10 5 15 23 24 39 51 59 65 55 58 56 49 49 49 48 43 46 45 51 59 61 65 56 49 43 37 29 27 24 18 11
17 14 15 51 21 20 22 22 21 22 12 11 6 11 15 20 30 41 48 57 58 51 58 51 48 44 47 49 48 45 48 50 55 65 59 51 46 46 51 41 32 25 15 9
8 6 19 39 30 23 27 21 23 17 16 5 9 10 16 21 33 41 50 61 48 50 53 47 44 40 42 47 48 45 46 50 53 61 55 47 44 44 50 53 44 37 16 8
5 10 9 15 38 35 31 29 23 19 6 7 9 10 14 26 32 41 49 63 43 49 46 43 42 43 44 46 46 46 44 45 51 53 54 46 38 39 43 45 46 45 31 16
11 20 14 16 31 44 40 33 25 14 3 4 6 10 17 24 34 45 50 60 42 47 43 41 40 44 46 47 44 43 42 44 48 50 51 48 45 42 34 33 39 39 34 30
10 18 29 21 41 37 32 28 20 6 3 5 4 11 18 27 38 41 49 54 41 48 42 38 40 44 44 45 45 43 39 38 43 45 47 48 47 47 47 39 35 37 35 33
21 8 23 47 38 35 24 26 16 12 13 5 6 13 21 31 34 41 49 53 37 44 39 37 40 42 45 50 48 43 35 32 35 40 41 44 45 47 48 41 42 37 36 32
57 35 33 39 34 34 34 29 24 24 15 6 8 15 24 30 35 41 47 48 35 41 39 37 38 38 39 43 45 41 36 32 32 32 34 38 41 45 47 41 40 36 32 32
49 45 36 51 46 44 38 39 33 25 14 7 9 19 21 26 37 39 49 41 33 42 42 39 38 39 38 40 39 39 34 26 27 28 30 36 40 42 43 40 40 39 33 29
44 37 41 55 53 49 48 44 35 25 14 5 14 14 19 28 37 41 52 36 29 34 39 37 37 39 36 32 32 35 34 27 24 24 27 34 39 40 39 35 35 37 35 27
54 42 37 61 59 52 54 43 31 20 9 7 9 14 24 29 41 45 48 32 29 31 37 32 33 36 33 29 30 29 30 32 21 22 25 29 36 36 36 32 33 34 37 38
50 43 28 62 59 55 56 43 28 14 4 4 12 20 24 29 41 42 41 25 28 33 40 33 30 30 31 26 27 26 27 29 20 14 19 24 29 33 33 32 37 50 62 65
62 51 38 65 59 63 50 32 19 10 2 10 17 18 21 30 34 39 29 24 26 32 35 29 28 28 25 30 28 23 27 23 18 9 14 20 26 31 30 49 67 75 75 73
58 58 57 66 65 48 32 25 17 8 5 12 14 17 21 27 37 37 24 18 23 30 27 22 25 24 28 32 26 18 23 19 15 5 11 17 24 26 43 57 61 61 54 45
61 65 75 70 57 43 31 24 17 9 9 9 15 19 24 30 37 31 17 21 24 24 19 19 23 26 31 24 18 18 20 15 13 6 12 14 20 22 34 45 52 45 44 49
70 81 74 61 52 42 39 29 14 7 9 11 14 19 25 34 35 22 15 20 19 15 17 19 23 27 25 17 17 18 17 12 11 5 14 15 18 19 22 39 45 44 50 42
81 77 65 55 50 47 38 21 21 13 9 12 16 20 29 37 23 14 19 19 12 11 15 16 22 26 18 18 14 15 13 8 8 6 12 17 15 16 16 33 40 42 38 33
73 68 63 58 50 36 25 34 23 16 16 14 15 22 32 27 12 14 15 7 8 13 14 15 17 23 18 16 19 13 8 8 1 6 9 18 16 14 19 20 46 46 35 28
70 64 54 43 33 26 28 29 22 22 18 10 16 29 29 17 9 12 9 2 7 12 12 13 19 24 19 20 18 12 1 2 2 4 8 15 13 8 16 29 38 60 40 33
54 48 39 32 24 31 31 24 25 18 9 9 21 28 21 8 7 8 4 4 5 9 13 12 20 22 17 15 15 10 7 4 3 2 10 10 9 13 24 29 36 63 51 41
Wind_Direction_500mb
248 255 262 266 273 288 218 209 164 265 137 100 51 359 25 55 22 19 25 3 351 340 335 337 340 335 327 332 335 339 337 336 334 331 329 319 319 315 314 304 300 291 291 281
285 288 295 296 288 279 281 115 131 136 138 170 93 36 75 27 28 27 8 351 343 341 343 344 338 336 336 337 339 341 337 337 337 335 330 328 322 314 314 302 297 294 286 277
269 305 336 322 271 226 125 67 130 130 163 202 3 20 28 22 31 16 3 351 349 347 343 341 339 337 339 339 340 339 339 339 336 335 332 328 324 317 305 310 303 298 292 288
246 4 339 245 248 138 131 128 117 102 117 81 19 3 7 40 15 3 350 345 345 346 346 344 337 332 335 337 338 340 344 343 338 336 333 333 323 317 315 310 300 295 289 285
139 200 284 295 218 170 158 290 71 120 68 28 18 358 55 16 357 351 342 346 348 348 343 340 339 337 336 333 336 343 346 338 342 340 335 334 331 324 319 311 301 294 296 289
138 177 235 240 266 122 90 295 150 108 93 14 19 20 272 355 347 346 351 350 347 344 340 344 341 339 340 340 339 349 347 348 345 349 344 337 336 327 316 312 305 300 295 289
153 227 283 243 154 126 87 239 180 182 180 119 74 161 6 348 348 346 347 346 346 341 345 346 345 346 345 343 342 346 349 349 345 350 350 342 334 333 324 317 311 308 301 293
133 197 275 173 145 161 201 171 186 183 162 123 129 50 357 343 343 341 343 346 343 345 348 349 350 348 349 347 342 345 348 345 350 355 355 358 360 3 358 339 326 327 326 311
172 211 225 183 204 210 199 186 192 170 160 159 103 13 348 346 336 343 345 345 347 349 350 355 354 355 354 351 346 346 346 350 353 360 357 3 7 11 17 14 1 345 336 331
69 266 200 204 213 209 188 187 160 167 159 120 14 351 336 329 338 344 344 347 348 348 351 356 357 358 358 352 347 350 352 354 358 2 1 4 9 18 22 20 19 0 12 46
246 261 173 217 222 201 172 160 166 157 153 5 355 329 323 331 341 344 347 348 346 348 351 350 350 356 356 355 353 352 354 357 0 3 4 7 16 11 18 23 20 26 30 45
232 217 219 228 184 179 170 175 174 176 133 342 312 309 322 337 344 346 347 346 344 350 352 346 348 355 355 358 358 354 353 359 3 4 6 8 10 12 17 18 25 30 40 53
248 270 251 218 178 179 183 179 172 190 151 191 261 317 325 337 342 346 343 347 345 349 349 347 349 353 354 0 358 359 357 359 3 5 7 7 13 16 15 30 31 38 48 60
272 220 158 166 183 186 198 175 175 170 162 195 301 314 324 334 342 341 344 347 343 347 350 349 350 351 355 356 357 1 2 2 6 6 9 10 14 14 18 29 34 41 50 65
255 248 252 229 188 189 184 181 182 172 173 215 291 304 320 335 339 340 342 343 341 345 353 352 354 354 354 354 355 3 2 3 7 9 12 13 11 15 19 33 40 53 60 66
242 253 261 201 193 187 187 189 189 180 199 245 283 307 327 334 338 338 340 338 338 347 353 352 355 353 356 355 357 2 7 4 6 9 14 16 14 15 20 33 46 58 63 62
223 231 211 193 187 187 197 197 197 191 187 245 304 304 318 328 334 333 339 336 334 346 352 348 355 358 355 357 358 358 4 7 8 15 19 19 15 16 23 41 53 61 66 71
232 231 224 207 189 189 180 180 180 181 204 291 282 280 311 325 336 336 340 338 337 338 351 350 355 355 355 357 1 359 2 6 9 12 22 27 23 22 27 53 68 73 80 82
223 217 224 210 200 196 182 176 177 193 225 293 269 295 313 325 333 332 339 338 332 336 348 350 353 357 353 4 356 356 360 0 12 16 35 37 35 32 42 69 77 88 96 97
221 231 224 198 191 187 174 175 178 176 207 295 293 307 307 328 337 334 340 336 333 338 340 347 356 354 356 356 352 349 360 3 8 33 53 50 51 43 71 102 110 109 105 102
223 211 197 184 174 174 174 173 177 178 263 297 313 293 303 325 337 335 334 332 334 334 340 357 358 352 351 347 355 356 359 5 9 79 78 67 71 66 120 125 120 114 103 86
204 190 177 171 167 164 168 170 173 193 277 272 275 289 309 321 329 334 326 334 336 337 353 360 360 355 349 356 360 3 2 11 13 126 115 93 96 91 139 139 131 117 95 82
190 177 169 166 166 165 162 170 187 201 235 267 287 299 312 325 334 340 335 334 339 349 6 358 355 352 354 7 1 6 14 23 31 120 139 127 118 114 130 160 143 122 112 100
174 164 161 162 161 162 164 165 170 188 244 274 281 307 326 336 337 346 345 337 351 12 10 3 2 357 358 2 350 9 4 19 37 74 159 163 145 140 142 169 169 148 119 90
159 157 157 161 164 165 160 165 179 205 231 244 286 322 332 336 341 346 333 346 15 21 6 353 353 355 359 347 343 324 332 22 30 30 171 178 187 171 178 169 182 164 140 104
157 157 159 163 164 165 177 182 197 198 213 266 318 329 326 328 326 332 329 98 50 21 357 349 356 355 344 337 342 344 202 228 71 331 173 177 191 193 165 169 168 177 159 128
152 154 157 159 172 176 177 199 201 199 204 302 333 346 339 315 323 312 227 143 67 32 12 5 3 358 4 7 15 43 33 52 126 51 153 165 163 153 155 156 160 172 154 137
Wind_Speed_850mb
10 13 9 11 18 17 11 13 11 10 11 2 5 5 15 21 28 27 23 29 32 37 44 54 64 64 62 65 68 67 61 63 58 52 51 51 51 47 42 39 42 35 37 36
7 13 12 14 19 16 13 6 10 13 6 6 2 13 15 24 23 26 27 29 31 43 55 64 63 62 62 67 69 60 57 58 55 53 54 56 48 44 46 42 42 39 36 35
9 9 13 14 11 5 6 3 9 5 7 5 6 26 18 27 24 22 21 27 41 52 63 64 60 59 65 68 65 56 57 54 55 55 54 52 49 47 40 42 36 36 31 30
7 7 3 14 4 7 14 7 8 12 8 8 9 16 15 19 27 30 27 38 47 59 60 58 60 57 64 68 61 51 54 52 52 56 57 50 45 47 42 40 36 36 34 35
4 4 12 12 4 7 9 3 2 11 4 9 10 9 8 20 30 30 32 41 52 58 58 67 55 63 69 62 51 46 50 54 59 56 54 53 52 48 42 38 37 37 37 33
6 5 10 13 3 14 12 5 9 9 2 3 8 8 8 20 25 24 37 49 60 61 69 53 62 63 59 50 48 47 53 52 55 56 61 62 53 47 39 36 35 33 37 37
6 8 14 14 16 9 9 13 18 7 4 5 2 1 7 17 22 33 46 56 61 69 52 59 56 51 51 51 46 46 50 52 59 59 71 59 49 43 34 33 31 32 31 22
5 6 14 29 10 14 13 24 17 16 13 4 10 5 15 23 24 39 51 59 65 55 58 56 49 49 49 48 43 46 45 51 59 61 65 56 49 43 37 29 27 24 18 11
17 14 15 51 21 20 22 22 21 22 12 11 6 11 15 20 30 41 48 57 58 51 58 51 48 44 47 49 48 45 48 50 55 65 59 51 46 46 51 41 32 25 15 9
8 6 19 39 30 23 27 21 23 17 16 5 9 10 16 21 33 41 50 61 48 50 53 47 44 40 42 47 48 45 46 50 53 61 55 47 44 44 50 53 44 37 16 8
5 10 9 15 38 35 31 29 23 19 6 7 9 10 14 26 32 41 49 63 43 49 46 43 42 43 44 46 46 46 44 45 51 53 54 46 38 39 43 45 46 45 31 16
11 20 14 16 31 44 40 33 25 14 3 4 6 10 17 24 34 45 50 60 42 47 43 41 40 44 46 47 44 43 42 44 48 50 51 48 45 42 34 33 39 39 34 30
10 18 29 21 41 37 32 28 20 6 3 5 4 11 18 27 38 41 49 54 41 48 42 38 40 44 44 45 45 43 39 38 43 45 47 48 47 47 47 39 35 37 35 33
21 8 23 47 38 35 24 26 16 12 13 5 6 13 21 31 34 41 49 53 37 44 39 37 40 42 45 50 48 43 35 32 35 40 41 44 45 47 48 41 42 37 36 32
57 35 33 39 34 34 34 29 24 24 15 6 8 15 24 30 35 41 47 48 35 41 39 37 38 38 39 43 45 41 36 32 32 32 34 38 41 45 47 41 40 36 32 32
49 45 36 51 46 44 38 39 33 25 14 7 9 19 21 26 37 39 49 41 33 42 42 39 38 39 38 40 39 39 34 26 27 28 30 36 40 42 43 40 40 39 33 29
44 37 41 55 53 49 48 44 35 25 14 5 14 14 19 28 37 41 52 36 29 34 39 37 37 39 36 32 32 35 34 27 24 24 27 34 39 40 39 35 35 37 35 27
54 42 37 61 59 52 54 43 31 20 9 7 9 14 24 29 41 45 48 32 29 31 37 32 33 36 33 29 30 29 30 32 21 22 25 29 36 36 36 32 33 34 37 38
50 43 28 62 59 55 56 43 28 14 4 4 12 20 24 29 41 42 41 25 28 33 40 33 30 30 31 26 27 26 27 29 20 14 19 24 29 33 33 32 37 50 62 65
62 51 38 65 59 63 50 32 19 10 2 10 17 18 21 30 34 39 29 24 26 32 35 29 28 28 25 30 28 23 27 23 18 9 14 20 26 31 30 49 67 75 75 73
58 58 57 66 65 48 32 25 17 8 5 12 14 17 21 27 37 37 24 18 23 30 27 22 25 24 28 32 26 18 23 19 15 5 11 17 24 26 43 57 61 61 54 45
61 65 75 70 57 43 31 24 17 9 9 9 15 19 24 30 37 31 17 21 24 24 19 19 23 26 31 24 18 18 20 15 13 6 12 14 20 22 34 45 52 45 44 49
70 81 74 61 52 42 39 29 14 7 9 11 14 19 25 34 35 22 15 20 19 15 17 19 23 27 25 17 17 18 17 12 11 5 14 15 18 19 22 39 45 44 50 42
81 77 65 55 50 47 38 21 21 13 9 12 16 20 29 37 23 14 19 19 12 11 15 16 22 26 18 18 14 15 13 8 8 6 12 17 15 16 16 33 40 42 38 33
73 68 63 58 50 36 25 34 23 16 16 14 15 22 32 27 12 14 15 7 8 13 14 15 17 23 18 16 19 13 8 8 1 6 9 18 16 14 19 20 46 46 35 28
70 64 54 43 33 26 28 29 22 22 18 10 16 29 29 17 9 12 9 2 7 12 12 13 19 24 19 20 18 12 1 2 2 4 8 15 13 8 16 29 38 60 40 33
54 48 39 32 24 31 31 24 25 18 9 9 21 28 21 8 7 8 4 4 5 9 13 12 20 22 17 15 15 10 7 4 3 2 10 10 9 13 24 29 36 63 51 41
Wind_Direction_850mb
248 255 262 266 273 288 218 209 164 265 137 100 51 359 25 55 22 19 25 3 351 340 335 337 340 335 327 332 335 339 337 336 334 331 329 319 319 315 314 304 300 291 291 281
285 288 295 296 288 279 281 115 131 136 138 170 93 36 75 27 28 27 8 351 343 341 343 344 338 336 336 337 339 341 337 337 337 335 330 328 322 314 314 302 297 294 286 277
269 305 336 322 271 226 125 67 130 130 163 202 3 20 28 22 31 16 3 351 349 347 343 341 339 337 339 339 340 339 339 339 336 335 332 328 324 317 305 310 303 298 292 288
246 4 339 245 248 138 131 128 117 102 117 81 19 3 7 40 15 3 350 345 345 346 346 344 337 332 335 337 338 340 344 343 338 336 333 333 323 317 315 310 300 295 289 285
139 200 284 295 218 170 158 290 71 120 68 28 18 358 55 16 357 351 342 346 348 348 343 340 339 337 336 333 336 343 346 338 342 340 335 334 331 324 319 311 301 294 296 289
138 177 235 240 266 122 90 295 150 108 93 14 19 20 272 355 347 346 351 350 347 344 340 344 341 339 340 340 339 349 347 348 345 349 344 337 336 327 316 312 305 300 295 289
153 227 283 243 154 126 87 239 180 182 180 119 74 161 6 348 348 346 347 346 346 341 345 346 345 346 345 343 342 346 349 349 345 350 350 342 334 333 324 317 311 308 301 293
133 197 275 173 145 161 201 171 186 183 162 123 129 50 357 343 343 341 343 346 343 345 348 349 350 348 349 347 342 345 348 345 350 355 355 358 360 3 358 339 326 327 326 311
172 211 225 183 204 210 199 186 192 170 160 159 103 13 348 346 336 343 345 345 347 349 350 355 354 355 354 351 346 346 346 350 353 360 357 3 7 11 17 14 1 345 336 331
69 266 200 204 213 209 188 187 160 167 159 120 14 351 336 329 338 344 344 347 348 348 351 356 357 358 358 352 347 350 352 354 358 2 1 4 9 18 22 20 19 0 12 46
246 261 173 217 222 201 172 160 166 157 153 5 355 329 323 331 341 344 347 348 346 348 351 350 350 356 356 355 353 352 354 357 0 3 4 7 16 11 18 23 20 26 30 45
232 217 219 228 184 179 170 175 174 176 133 342 312 309 322 337 344 346 347 346 344 350 352 346 348 355 355 358 358 354 353 359 3 4 6 8 10 12 17 18 25 30 40 53
248 270 251 218 178 179 183 179 172 190 151 191 261 317 325 337 342 346 343 347 345 349 349 347 349 353 354 0 358 359 357 359 3 5 7 7 13 16 15 30 31 38 48 60
272 220 158 166 183 186 198 175 175 170 162 195 301 314 324 334 342 341 344 347 343 347 350 349 350 351 355 356 357 1 2 2 6 6 9 10 14 14 18 29 34 41 50 65
255 248 252 229 188 189 184 181 182 172 173 215 291 304 320 335 339 340 342 343 341 345 353 352 354 354 354 354 355 3 2 3 7 9 12 13 11 15 19 33 40 53 60 66
242 253 261 201 193 187 187 189 189 180 199 245 283 307 327 334 338 338 340 338 338 347 353 352 355 353 356 355 357 2 7 4 6 9 14 16 14 15 20 33 46 58 63 62
223 231 211 193 187 187 197 197 197 191 187 245 304 304 318 328 334 333 339 336 334 346 352 348 355 358 355 357 358 358 4 7 8 15 19 19 15 16 23 41 53 61 66 71
232 231 224 207 189 189 180 180 180 181 204 291 282 280 311 325 336 336 340 338 337 338 351 350 355 355 355 357 1 359 2 6 9 12 22 27 23 22 27 53 68 73 80 82
223 217 224 210 200 196 182 176 177 193 225 293 269 295 313 325 333 332 339 338 332 336 348 350 353 357 353 4 356 356 360 0 12 16 35 37 35 32 42 69 77 88 96 97
221 231 224 198 191 187 174 175 178 176 207 295 293 307 307 328 337 334 340 336 333 338 340 347 356 354 356 356 352 349 360 3 8 33 53 50 51 43 71 102 110 109 105 102
223 211 197 184 174 174 174 173 177 178 263 297 313 293 303 325 337 335 334 332 334 334 340 357 358 352 351 347 355 356 359 5 9 79 78 67 71 66 120 125 120 114 103 86
204 190 177 171 167 164 168 170 173 193 277 272 275 289 309 321 329 334 326 334 336 337 353 360 360 355 349 356 360 3 2 11 13 126 115 93 96 91 139 139 131 117 95 82
190 177 169 166 166 165 162 170 187 201 235 267 287 299 312 325 334 340 335 334 339 349 6 358 355 352 354 7 1 6 14 23 31 120 139 127 118 114 130 160 143 122 112 100
174 164 161 162 161 162 164 165 170 188 244 274 281 307 326 336 337 346 345 337 351 12 10 3 2 357 358 2 350 9 4 19 37 74 159 163 145 140 142 169 169 148 119 90
159 157 157 161 164 165 160 165 179 205 231 244 286 322 332 336 341 346 333 346 15 21 6 353 353 355 359 347 343 324 332 22 30 30 171 178 187 171 178 169 182 164 140 104
157 157 159 163 164 165 177 182 197 198 213 266 318 329 326 328 326 332 329 98 50 21 357 349 356 355 344 337 342 344 202 228 71 331 173 177 191 193 165 169 168 177 159 128
152 154 157 159 172 176 177 199 201 199 204 302 333 346 339 315 323 312 227 143 67 32 12 5 3 358 4 7 15 43 33 52 126 51 153 165 163 153 155 156 160 172 154 137